星链-32368 (STARLINK-32368)

导读 | 豆包AI

STARLINK-32368是美国太空探索技术公司SpaceX星链卫星互联网项目的组网卫星,于2024年9月13日发射升空。作为星链星座的组成部分,它旨在为全球提供高速低延迟互联网服务,尤其支持偏远地区、移动载具的网络连接,进一步扩充了星链星座的在轨服务规模。

基本信息
目录编号:
61067
目录名称:
STARLINK-32368
国际标识:
2024-164T
轨道中心:
EARTH
卫星名称:
星链-32368
卫星全名:
星链-32368 (STARLINK-32368)
卫星状态:
已陨落 最后检测时间 2024-12-18
发射日期:
2024-09-13 UTC
国别 :
美国 (US)
星等 :
--
轨道信息
数据来源 国际轨道数据
星历时间: 2024-12-19T05:21:18+0800
轨道信息已过期451天
半长轴: 6553.912km
偏心率: 0.000664
轨道倾角: 53.138°
近地点辐角 68.343°
升交点赤经 1.540°
平近点角 24.448°
近地点: 171.425km
远地点: 180.129km
周期: 88.006分钟
每日圈数: 16.362583
详细信息
固有亮度:
5
最大亮度:
2.5
卫星平台:
Starlink V1.0
覆盖范围:
全球
运营商:
太空探索技术公司
运营商所在国:
美国
制造商(研发单位):
太空探索技术公司
制造商所在国:
美国
使用方式:
暂无
卫星简介
Starlink 计划是 SpaceX 推出的全球卫星互联网项目,通过发射低轨道卫星,为全球尤其是偏远地区提供高速、低延迟的互联网服务。自 2019 年起,Starlink 已部署数千颗卫星,旨在缩小全球数字鸿沟,推动互联网普及。该项目还为军事、航空等行业提供通信支持,带来广泛经济效益。